TimeEDT,TemperatureF,Dew PointF,Humidity,Sea Level PressureIn,VisibilityMPH,Wind Direction,Wind SpeedMPH,Gust SpeedMPH,PrecipitationIn,Events,Conditions,WindDirDegrees,DateUTC
12:53 AM,64.0,51.1,63,30.11,10.0,SE,11.5,18.4,N/A,,Clear,140,2013-05-01 04:53:00
1:53 AM,63.0,50.0,63,30.12,10.0,SSE,15.0,21.9,N/A,,Clear,150,2013-05-01 05:53:00
2:53 AM,61.0,50.0,67,30.13,10.0,SE,15.0,21.9,N/A,,Clear,140,2013-05-01 06:53:00
3:53 AM,60.1,50.0,69,30.13,10.0,SSE,18.4,23.0,N/A,,Clear,150,2013-05-01 07:53:00
4:53 AM,60.1,48.9,67,30.14,10.0,SSE,17.3,26.5,N/A,,Clear,150,2013-05-01 08:53:00
5:53 AM,59.0,50.0,72,30.16,10.0,SSE,16.1,24.2,N/A,,Clear,150,2013-05-01 09:53:00
6:53 AM,57.9,50.0,75,30.19,10.0,SSE,13.8,25.3,N/A,,Clear,150,2013-05-01 10:53:00
7:53 AM,60.1,50.0,69,30.21,10.0,SSE,18.4,24.2,N/A,,Clear,150,2013-05-01 11:53:00
8:53 AM,62.1,50.0,65,30.22,10.0,SSE,17.3,26.5,N/A,,Clear,150,2013-05-01 12:53:00
9:53 AM,66.0,51.1,59,30.23,10.0,SSE,17.3,25.3,N/A,,Clear,150,2013-05-01 13:53:00
10:53 AM,69.1,53.1,57,30.23,10.0,SSE,15.0,23.0,N/A,,Clear,150,2013-05-01 14:53:00
11:53 AM,73.0,54.0,51,30.22,10.0,South,12.7,-,N/A,,Clear,180,2013-05-01 15:53:00
12:53 PM,75.9,54.0,46,30.22,10.0,ESE,10.4,-,N/A,,Clear,120,2013-05-01 16:53:00
1:53 PM,77.0,54.0,45,30.20,10.0,ESE,9.2,16.1,N/A,,Clear,110,2013-05-01 17:53:00
2:49 PM,62.6,53.6,72,30.22,10.0,NE,13.8,18.4,N/A,,Clear,40,2013-05-01 18:49:00
2:53 PM,63.0,54.0,72,30.22,10.0,NNE,13.8,18.4,N/A,,Clear,30,2013-05-01 18:53:00
3:53 PM,61.0,53.1,75,30.22,10.0,NE,10.4,-,N/A,,Clear,40,2013-05-01 19:53:00
4:53 PM,57.0,50.0,77,30.22,10.0,NE,11.5,-,N/A,,Clear,50,2013-05-01 20:53:00
5:53 PM,55.0,48.9,80,30.22,10.0,NE,10.4,-,N/A,,Clear,40,2013-05-01 21:53:00
6:53 PM,57.9,51.1,78,30.22,10.0,NNE,4.6,-,N/A,,Clear,30,2013-05-01 22:53:00
7:53 PM,66.9,51.1,57,30.22,10.0,ESE,3.5,-,N/A,,Clear,110,2013-05-01 23:53:00
8:53 PM,73.9,48.9,41,30.22,10.0,ESE,4.6,-,N/A,,Clear,120,2013-05-02 00:53:00
9:53 PM,71.1,48.9,45,30.24,10.0,ESE,4.6,-,N/A,,Clear,110,2013-05-02 01:53:00
10:53 PM,71.1,48.9,45,30.24,10.0,ESE,6.9,-,N/A,,Clear,110,2013-05-02 02:53:00
11:53 PM,69.1,45.0,42,30.24,10.0,ESE,9.2,-,N/A,,Clear,120,2013-05-02 03:53:00